アトラス彗星

C/2017 T3 ( ATLAS )

English version
Home page
Updated on January 8, 2018

---------------------------------------------------------------------

・ プロフィール

発見日 2017年10月14日
発見光度 18.3等
発見者 Asteroid Terrestrial-impact Last Alert System (ATLAS) search program

・ 写真集

・ 軌道要素

Epoch 2018 July 21.0 TT = JDT 2458320.5
T 2018 July 19.15842 TT                                 MPCW
q   0.8253274            (2000.0)            P               Q
z  +0.0008225      Peri.  246.89053     +0.22851130     -0.60006817
 +/-0.0000405      Node   230.08840     +0.65975967     -0.48359818
e   0.9993211      Incl.   88.10641     -0.71589089     -0.63722131
From 213 observations 2017 Sept. 11-Nov. 29, mean residual 0".5.

・ 星図

・ 光度変化

        m1 = 9.0 + 5 logΔ + 10.0 log r

---------------------------------------------------------------------

軌道要素はM.P.E.C. 2017-X08に掲載されたものです。
星図はステラナビゲータ Ver.10 (アストロアーツ) で作成したものです。
光度グラフはComet for Windowsで作成したものです。

---------------------------------------------------------------------

Copyright(C) Seiichi Yoshida (comet@aerith.net). All rights reserved.